This demonstration page uses our WeatherBlox Daily Observations layout. Learn more.

Left ArrowRight Arrow

39.92423, -83.80882

Hourly Observations for February 24, 2019

Temp ( °F °C ) Dew Point ( °F °C ) Humidity (%) Winds ( mph kmh ) Pressure ( in mb ) Visibility ( mi km ) Precip ( " mm )
12:56 am 00:56 Cloudy 55 12.8 54 12.2 96 96 S 24 39 29.54 1000 10 16.0934 0.03 0.762
2:36 am 02:36 Cloudy 55 13 55 13 100 100 S 13 20 29.49 999 10 16.0934 N/A
2:56 am 02:56 Cloudy 57 13.9 55 12.8 93 93 S 14 22 29.47 998 10 16.0934 N/A
3:12 am 03:12 Cloudy 55 13 55 13 100 100 S 13 20 29.46 998 10 16.0934 N/A
3:48 am 03:48 Cloudy 57 14 55 13 94 94 SSW 13 20 29.44 997 10 16.0934 N/A
3:56 am 03:56 Cloudy 57 13.9 55 12.8 93 93 SSW 16 26 29.44 997 10 16.0934 N/A
4:28 am 04:28 Cloudy 57 14 55 13 94 94 SSW 18 30 29.41 996 10 16.0934 N/A
4:56 am 04:56 Mostly Cloudy 57 13.9 53 11.7 87 87 SW 22 35 29.42 996 10 16.0934 N/A
5:56 am 05:56 Mostly Cloudy 55 12.8 50 10 83 83 SW 22 35 29.43 997 10 16.0934 N/A
6:07 am 06:07 Mostly Cloudy 54 12 48 9 82 82 SW 25 41 29.42 996 10 16.0934 N/A
6:56 am 06:56 Clear 53 11.7 44 6.7 72 72 SW 23 37 29.42 996 10 16.0934 N/A
7:56 am 07:56 Mostly Cloudy 52 11.1 41 5 66 66 SW 24 39 29.43 997 10 16.0934 N/A
8:35 am 08:35 Cloudy 45 7 37 3 76 76 W 40 65 29.51 999 10 16.0934 N/A
8:56 am 08:56 Cloudy 41 5 34 1.1 76 76 W 38 61 29.53 1000 10 16.0934 N/A
9:56 am 09:56 Cloudy 39 3.9 33 0.6 79 79 W 33 54 29.58 1002 10 16.0934 N/A
10:56 am 10:56 Cloudy with Light Rain 37 2.8 31 -0.6 79 79 W 28 44 29.65 1004 10 16.0934 N/A
11:56 am 11:56 Cloudy 36 2.2 30 -1.1 79 79 W 29 46 29.7 1006 10 16.0934 N/A
12:56 pm 12:56 Cloudy 36 2.2 29 -1.7 76 76 WSW 35 56 29.71 1006 10 16.0934 N/A
1:56 pm 13:56 Cloudy 36 2.2 29 -1.7 76 76 W 35 56 29.74 1007 10 16.0934 N/A
3:26 pm 15:26 Cloudy 37 3 28 -2 70 70 W 28 44 29.82 1010 10 16.0934 N/A
3:56 pm 15:56 Cloudy 39 3.9 27 -2.8 62 62 W 33 54 29.8 1009 10 16.0934 N/A
4:56 pm 16:56 Mostly Sunny 38 3.3 24 -4.4 57 57 W 37 59 29.81 1010 10 16.0934 N/A
5:56 pm 17:56 Mostly Sunny 36 2.2 23 -5 59 59 W 29 46 29.86 1011 10 16.0934 N/A
6:56 pm 18:56 Partly Cloudy 34 1.1 23 -5 64 64 W 29 46 29.91 1013 10 16.0934 N/A
7:56 pm 19:56 Mostly Cloudy 32 undefined 20 -6.7 61 61 W 41 67 29.95 1014 10 16.0934 N/A
8:56 pm 20:56 Mostly Cloudy 31 -0.6 21 -6.1 67 67 W 39 63 29.98 1015 10 16.0934 N/A
9:56 pm 21:56 Mostly Clear 30 -1.1 20 -6.7 66 66 W 25 41 30.03 1017 10 16.0934 N/A
10:56 pm 22:56 Clear 28 -2.2 18 -7.8 66 66 W 22 35 30.05 1018 10 16.0934 N/A
11:56 pm 23:56 Clear 27 -2.8 17 -8.3 66 66 W 21 33 30.07 1018 10 16.0934 N/A

Powered by AerisWeather